This demonstration page uses our WeatherBlox Daily Observations layout. Learn more.

Left ArrowRight Arrow

38.80484, -77.04692

Hourly Observations for August 29, 2019

Temp ( °F °C ) Dew Point ( °F °C ) Humidity (%) Winds ( mph kmh ) Pressure ( in mb ) Visibility ( mi km ) Precip ( " mm )
12:52 am 00:52 Mostly Clear 70 21.1 66 18.9 87 87 Calm 29.91 1013 10 16 0.00 0.00
1:52 am 01:52 Clear 73 22.8 60 15.6 64 64 NW 12 19 29.91 1013 10 16 0.00 0.00
2:52 am 02:52 Clear 70 21.1 60 15.6 71 71 NNW 9 15 29.91 1013 10 16 0.00 0.00
3:52 am 03:52 Clear 70 21.1 58 14.4 66 66 NNW 10 17 29.92 1013 10 16 0.00 0.00
4:52 am 04:52 Clear 70 21.1 57 13.9 64 64 NW 8 13 29.93 1014 10 16 0.00 0.00
5:52 am 05:52 Clear with Light Rain 70 21.1 56 13.3 61 61 NW 10 17 29.95 1014 10 16 0.00 0.00
6:52 am 06:52 Mostly Sunny 68 20 56 13.3 65 65 NNW 6 9 29.96 1015 10 16 0.00 0.00
7:52 am 07:52 Mostly Sunny 71 21.7 57 13.9 61 61 VRB 3 6 29.98 1015 10 16 0.00 0.00
8:52 am 08:52 Sunny 75 23.9 56 13.3 52 52 NNW 9 15 29.98 1015 10 16 0.00 0.00
9:52 am 09:52 Sunny 77 25 55 12.8 47 47 NW 13 20 30.01 1016 10 16 0.00 0.00
10:52 am 10:52 Mostly Sunny 80 26.7 55 12.8 42 42 NW 13 20 30.03 1017 10 16 0.00 0.00
11:52 am 11:52 Mostly Sunny 81 27.2 54 12.2 39 39 NW 10 17 30.03 1017 10 16 0.00 0.00
12:52 pm 12:52 Mostly Sunny 84 28.9 53 11.7 34 34 NW 13 20 30.01 1016 10 16 0.00 0.00
1:52 pm 13:52 Mostly Sunny 85 29.4 52 11.1 32 32 NW 10 17 30.00 1016 10 16 0.00 0.00
2:52 pm 14:52 Mostly Sunny 84 28.9 54 12.2 36 36 NNW 10 17 29.98 1015 10 16 0.00 0.00
3:52 pm 15:52 Mostly Sunny 86 30 54 12.2 33 33 WNW 14 22 29.97 1015 10 16 0.00 0.00
4:52 pm 16:52 Mostly Sunny 85 29.4 54 12.2 35 35 undefined N/A 29.98 1015 10 16 0.00 0.00
5:52 pm 17:52 Mostly Sunny 84 28.9 51 10.6 32 32 undefined N/A 29.98 1015 10 16 0.00 0.00
6:52 pm 18:52 Sunny 82 27.8 54 12.2 38 38 NNW 8 13 29.98 1015 10 16 0.00 0.00
7:52 pm 19:52 Clear 79 26.1 54 12.2 42 42 NNW 5 7 30.00 1016 10 16 0.00 0.00
8:52 pm 20:52 Clear 78 25.6 61 16.1 56 56 Calm 30.01 1016 10 16 0.00 0.00
9:52 pm 21:52 Clear 75 23.9 59 15 58 58 S 3 6 30.02 1017 10 16 0.00 0.00
10:52 pm 22:52 Clear 73 22.8 58 14.4 59 59 WSW 3 6 30.03 1017 10 16 0.00 0.00
11:52 pm 23:52 Clear 71 21.7 58 14.4 63 63 WSW 3 6 30.03 1017 10 16 0.00 0.00

Powered by AerisWeather